Weather History for Piney Island, NC

Change the Weather History Date:

Sunday, October 27, 2013

  Actual Average (KMRH) Record (KMRH)
Temperature  
Mean Temperature 54 °F -  
Max Temperature 64 °F 72 °F 84 °F (1984)
Min Temperature 46 °F 52 °F 30 °F (1962)
Degree Days  
Heating Degree Days 10    
Growing Degree Days 4 (Base 50)    
Moisture  
Dew Point 43 °F    
Average Humidity 62    
Maximum Humidity 78    
Minimum Humidity 41    
Precipitation  
Precipitation 0.00 in - - ()
Sea Level Pressure  
Sea Level Pressure 30.12 in    
Wind  
Wind Speed 7 mph (SSW)    
Max Wind Speed 9 mph    
Max Gust Speed -    
Averages and records for this station are not official NWS values.
T = Trace of Precipitation, MM = Missing Value Source: NWS Daily Summary

Daily Weather History Graph

Daily Weather History Graph

Search for Another Location

Airport:

Trip Planner

Search our weather history database for the weather conditions in past years. The results will help you decide how hot, cold, wet, or windy it might be!

Date:

Astronomy

Oct. 27, 2013 Rise Set
Actual Time 7:22 AM EDT 6:16 PM EDT
Civil Twilight 6:56 AM EDT 6:42 PM EDT
Nautical Twilight 6:26 AM EDT 7:12 PM EDT
Astronomical Twilight 5:57 AM EDT 7:41 PM EDT
Moon 12:33 AM EDT (10/27) 2:10 PM EDT (10/27)
Length of Visible Light 11h 45m
Length of Day
10h 53m
Last Quarter, 44% of the Moon is Illuminated
Oct 27
Last Quarter
Nov 3
New
Nov 10
First Quarter
Nov 17
Full
Nov 25
Last Quarter

Hourly Weather History & Observations

Time (EDT) Temp. Windchill Dew Point Humidity Pressure Visibility Wind Dir Wind Speed Gust Speed Precip Events Conditions
12:56 AM 51.1 °F - 39.9 °F 66% 30.12 in - West 8.1 mph - N/A   Clear
1:56 AM 50.0 °F - 37.9 °F 63% 30.11 in - WSW 5.8 mph - N/A   Clear
2:56 AM 48.9 °F - 37.9 °F 66% 30.09 in - SW 6.9 mph - N/A   Clear
3:56 AM 48.9 °F - 39.0 °F 69% 30.08 in - SW 6.9 mph - N/A   Clear
4:56 AM 51.1 °F - 39.9 °F 66% 30.08 in - WSW 8.1 mph - N/A   Clear
5:56 AM 50.0 °F - 41.0 °F 71% 30.09 in - WSW 6.9 mph - N/A   Clear
6:56 AM 46.0 °F 42.5 °F 39.0 °F 76% 30.09 in - SSW 6.9 mph - N/A   Clear
7:56 AM 46.9 °F - 39.9 °F 77% 30.10 in - SSW 5.8 mph - N/A   Clear
8:56 AM 52.0 °F - 43.0 °F 71% 30.12 in - WSW 5.8 mph - N/A   Clear
9:56 AM 57.0 °F - 41.0 °F 55% 30.13 in - WNW 9.2 mph - N/A   Clear
10:56 AM 59.0 °F - 41.0 °F 51% 30.14 in - NW 8.1 mph - N/A   Clear
11:56 AM 61.0 °F - 41.0 °F 48% 30.14 in - NW 9.2 mph - N/A   Clear
12:56 PM 63.0 °F - 42.1 °F 46% 30.12 in - NNW 5.8 mph - N/A   Clear
1:56 PM 63.0 °F - 39.9 °F 43% 30.10 in - East 8.1 mph - N/A   Clear
2:56 PM 63.0 °F - 41.0 °F 45% 30.09 in - ENE 5.8 mph - N/A   Clear
3:56 PM 63.0 °F - 39.0 °F 41% 30.09 in - East 6.9 mph - N/A   Clear
4:56 PM 63.0 °F - 44.1 °F 50% 30.09 in - East 6.9 mph - N/A   Clear
5:56 PM 61.0 °F - 43.0 °F 52% 30.11 in - ESE 4.6 mph - N/A   Clear
6:56 PM 59.0 °F - 46.9 °F 64% 30.11 in - SE 5.8 mph - N/A   Clear
7:56 PM 57.9 °F - 50.0 °F 75% 30.13 in - SSE 6.9 mph - N/A   Clear
8:56 PM 57.0 °F - 48.9 °F 74% 30.14 in - SSE 4.6 mph - N/A   Clear
9:56 PM 60.1 °F - 50.0 °F 69% 30.16 in - SE 4.6 mph - N/A   Clear
10:56 PM 57.9 °F - 51.1 °F 78% 30.17 in - SSE 4.6 mph - N/A   Clear
11:56 PM 57.0 °F - 50.0 °F 77% 30.17 in - SSE 4.6 mph - N/A   Clear